Everett, WA

10:19 AM PDT on June 25, 2017 (GMT -0700)
Snohomish County

Weather History for KPAE - August, 2013

Change the Weather History Date:

Monday, August 26, 2013

  Actual Average Record
Temperature  
Mean Temperature 68 °F -  
Max Temperature 77 °F 72 °F 88 °F (2016)
Min Temperature 60 °F 50 °F 43 °F (1949)
Cooling Degree Days 2    
Growing Degree Days 18 (Base 50)    
Moisture  
Dew Point 54 °F    
Average Humidity 69    
Maximum Humidity 83    
Minimum Humidity 34    
Precipitation  
Precipitation 0.00 in - - ()
Sea Level Pressure  
Sea Level Pressure 29.91 in    
Wind  
Wind Speed 8 mph (South)    
Max Wind Speed 21 mph    
Max Gust Speed 33 mph    
Visibility 10 miles    
Events Rain    
Averages and records for this station are not official NWS values.
T = Trace of Precipitation, MM = Missing Value Source: NWS Daily Summary

Daily Weather History Graph

Daily Weather History Graph

Search for Another Location

Airport or City:

Trip Planner

Search our weather history database for the weather conditions in past years. The results will help you decide how hot, cold, wet, or windy it might be!

Date:

Astronomy

Aug. 26, 2013 Rise Set
Actual Time 6:19 AM PDT 8:01 PM PDT
Civil Twilight 5:46 AM PDT 8:33 PM PDT
Nautical Twilight 5:06 AM PDT 9:13 PM PDT
Astronomical Twilight 4:22 AM PDT 9:56 PM PDT
Moon 10:43 PM PDT (8/26) 12:57 PM PDT (8/26)
Length of Visible Light 14h 46m
Length of Day
13h 41m
Waning Gibbous, 65% of the Moon is Illuminated
Aug 26
Waning Gibbous
Aug 28
Last Quarter
Sep 5
New
Sep 12
First Quarter
Sep 19
Full

Hourly Weather History & Observations

Time (PDT) Temp. Dew Point Humidity Pressure Visibility Wind Dir Wind Speed Gust Speed Precip Events Conditions
12:53 AM 63.0 °F 54.0 °F 72% 29.90 in 10.0 mi Variable 4.6 mph - N/A   Overcast
1:53 AM 62.1 °F 54.0 °F 75% 29.90 in 10.0 mi SSE 8.1 mph - N/A   Scattered Clouds
2:53 AM 61.0 °F 55.0 °F 81% 29.89 in 10.0 mi Variable 6.9 mph - N/A   Clear
3:53 AM 60.1 °F 55.0 °F 83% 29.90 in 10.0 mi Variable 3.5 mph - N/A   Partly Cloudy
4:53 AM 61.0 °F 55.0 °F 81% 29.91 in 10.0 mi SSE 9.2 mph - N/A   Scattered Clouds
5:53 AM 61.0 °F 54.0 °F 78% 29.91 in 10.0 mi SSE 6.9 mph - N/A   Overcast
6:53 AM 61.0 °F 55.0 °F 81% 29.91 in 10.0 mi Variable 3.5 mph - N/A   Mostly Cloudy
7:53 AM 62.1 °F 55.0 °F 78% 29.91 in 10.0 mi SSE 8.1 mph - N/A   Mostly Cloudy
8:53 AM 62.1 °F 55.9 °F 80% 29.91 in 10.0 mi South 6.9 mph - 0.00 in Rain Light Rain
9:53 AM 64.0 °F 55.9 °F 75% 29.91 in 10.0 mi SSE 5.8 mph - 0.00 in   Overcast
10:53 AM 66.9 °F 55.0 °F 66% 29.90 in 10.0 mi SSE 6.9 mph - N/A   Overcast
11:00 AM 68.0 °F 55.4 °F 64% 29.91 in 10.0 mi South 6.9 mph - N/A   Overcast
11:53 AM 68.0 °F 54.0 °F 61% 29.89 in 10.0 mi WSW 8.1 mph - N/A   Overcast
12:53 PM 71.1 °F 54.0 °F 55% 29.88 in 10.0 mi SW 9.2 mph - N/A   Mostly Cloudy
1:53 PM 73.0 °F 53.1 °F 49% 29.87 in 10.0 mi SSW 15.0 mph 21.9 mph N/A   Overcast
2:53 PM 75.0 °F 53.1 °F 46% 29.87 in 10.0 mi South 12.7 mph 18.4 mph N/A   Overcast
3:53 PM 73.9 °F 44.1 °F 34% 29.88 in 10.0 mi SSW 20.7 mph 33.4 mph N/A   Mostly Cloudy
4:53 PM 71.1 °F 48.9 °F 45% 29.89 in 10.0 mi SW 15.0 mph 19.6 mph 0.00 in Rain Light Rain
5:53 PM 66.0 °F 53.1 °F 63% 29.91 in 10.0 mi South 15.0 mph 19.6 mph 0.00 in Rain Light Rain
6:53 PM 64.9 °F 55.0 °F 70% 29.93 in 10.0 mi South 9.2 mph - 0.00 in Rain Light Rain
7:53 PM 62.1 °F 54.0 °F 75% 29.93 in 10.0 mi SW 4.6 mph - 0.00 in   Overcast
8:53 PM 61.0 °F 53.1 °F 75% 29.95 in 10.0 mi South 9.2 mph - N/A   Mostly Cloudy
9:53 PM 63.0 °F 54.0 °F 72% 29.96 in 10.0 mi SSE 8.1 mph - N/A   Clear
10:53 PM 62.1 °F 55.0 °F 78% 29.96 in 10.0 mi South 11.5 mph - N/A   Clear
11:53 PM 62.1 °F 55.0 °F 78% 29.97 in 10.0 mi SSE 8.1 mph - N/A   Clear